Regional Weather Roundup
Issued by NWS

Home | Current Version | Previous Version | Text Only | Print | Product List | Glossary Off
Versions: 1 2 3 4 5 6 7 8 9 10 11 12 13 14 15 16 17 18 19 20 21 22 23 24 25 26 27 28 29 30 31 32 33 34 35 36 37 38 39 40 41 42 43 44 45 46 47 48 49 50

000
ASUS45 KCYS 180410
RWRWY

WYOMING REGIONAL WEATHER ROUNDUP
NATIONAL WEATHER SERVICE CHEYENNE WY
1000 PM MDT WED SEP 17 2014

NOTE:  "FAIR" INDICATES FEW OR NO CLOUDS BELOW 12,000 FEET
WITH NO SIGNIFICANT WEATHER AND/OR OBSTRUCTIONS TO VISIBILITY.

WYZ001-180500-
YELLOWSTONE NATIONAL PARK

CITY           SKY/WX    TMP DP  RH WIND       PRES   REMARKS
LK YELLOWSTONE   N/A     46  38  73 NW3       30.21F
W YELLOWSTONE  NOT AVBL

$$
WYZ002>013-054>058-071-098>099-180500-
NORTHERN WYOMING

CITY           SKY/WX    TMP DP  RH WIND       PRES   REMARKS
JACKSON        CLEAR     55  43  62 NE5       30.09R
CODY             N/A    N/A N/A N/A MISG        N/A
GREYBULL       PTCLDY    70  44  39 NE5       29.93F
WORLAND        PTCLDY    59  48  67 CALM      29.95F
SHERIDAN       CLOUDY    68  45  43 E5        29.94R
BUFFALO        LGT RAIN  69  42  37 N3        30.02F
GILLETTE       MOCLDY    66  47  50 S6        29.97R
HULETT         FAIR      63  48  59 MISG      29.99
NEWCASTLE      FAIR      70  43  37 E13       29.98

$$
WYZ014>020-022>026-101>103-180500-
CENTRAL WYOMING

CITY           SKY/WX    TMP DP  RH WIND       PRES   REMARKS
BIG PINEY      CLEAR     52  46  80 CALM      30.16R
PINEDALE       MOCLDY    50  37  62 W5        30.17S
DUBOIS         FAIR      54  37  54 NW5       30.16R
LANDER         MOCLDY    67  37  33 W9        30.03S
RIVERTON       MOCLDY    68  41  37 E7        30.04R
CASPER         PTCLDY    59  37  44 S7        30.04R
DOUGLAS        CLEAR     59  41  51 CALM      30.03R

$$
WYZ021-027>030-104>119-180500-
SOUTHERN WYOMING

CITY           SKY/WX    TMP DP  RH WIND       PRES   REMARKS
EVANSTON       PTCLDY    63  40  42 S6        30.15S
KEMMERER       CLEAR     61  36  39 S5        30.17S
FORT BRIDGER   FAIR      65  39  37 S13       30.17F
ROCK SPRINGS   PTCLDY    65  35  33 SW6       30.14
DIXON          FAIR      60  42  52 E9        30.17S
RAWLINS        PTCLDY    61  37  41 CALM      30.15S
SARATOGA       FAIR      50  43  76 SE3       30.19S
LARAMIE        CLEAR     53  40  61 S12       30.19S
CHEYENNE       CLEAR     58  41  53 W8        30.12S
TORRINGTON     CLEAR     62  46  55 SE3       29.97R
PINE BLUFFS    FAIR      55  45  67 CALM      30.06R

$$



USA.gov is the U.S. government's official web portal to all federal, state and local government web resources and services.